Location: Chmeli�t?
(49.8978°N, 15.0526°E)
Time: 06:47:24
(UTC+00:00)

Cosmos 2074 Rocket - Pass Details

Date: 05 October 2020
Orbit: 967 x 987 km, 82.9° (Epoch: 30 October)

Event Time Altitude Azimuth Distance (km) Brightness Sun altitude
Rises 22:36:01 0° 344° (NNW) 3,692 7.8 -45.2°
Reaches altitude 10° 22:38:45 10° 336° (NNW) 2,737 6.9 -45.3°
Enters shadow 22:40:09 17° 328° (NNW) 2,289 6.3 -45.3°
